GFSSW_prec_precacc_294.txt.gz
Total_Precipitation_Accumulation
0.11 0.13 0.17 0.16 0.16 0.18 0.21 0.20 0.20 0.19 0.18 0.17 0.17 0.16 0.18 0.22 0.16 0.09 0.06 0.07 0.19 0.20 0.08 0.01 0.02 0.04 0.24 0.34 0.65 1.10 1.00 0.52 0.36 0.14 0.05 0.09 0.12 0.09 0.07 0.07 0.09 0.13 0.08 0.25 0.49
0.10 0.13 0.17 0.16 0.17 0.19 0.20 0.18 0.16 0.17 0.18 0.20 0.23 0.26 0.33 0.31 0.09 0.06 0.10 0.14 0.10 0.14 0.02 0.02 0.02 0.06 0.18 0.27 0.66 1.14 0.68 0.15 0.11 0.27 0.21 0.23 0.25 0.20 0.18 0.15 0.15 0.14 0.19 0.52 0.68
0.12 0.14 0.14 0.16 0.18 0.18 0.17 0.18 0.17 0.17 0.16 0.20 0.26 0.39 0.51 0.22 0.05 0.07 0.11 0.07 0.14 0.07 0.02 0.01 0.04 0.16 0.17 0.26 0.42 0.56 0.39 0.09 0.05 0.13 0.44 0.50 0.43 0.31 0.36 0.27 0.21 0.22 0.44 0.62 0.91
0.17 0.18 0.15 0.16 0.20 0.19 0.18 0.16 0.18 0.19 0.22 0.22 0.31 0.47 0.39 0.19 0.07 0.03 0.12 0.07 0.06 0.03 0.04 0.04 0.11 0.23 0.20 0.20 0.21 0.39 0.10 0.15 0.10 0.13 0.31 0.57 0.68 0.42 0.42 0.32 0.20 0.29 0.59 0.88 1.11
0.19 0.21 0.24 0.24 0.22 0.21 0.17 0.16 0.17 0.21 0.22 0.22 0.35 0.52 0.39 0.19 0.05 0.00 0.00 0.02 0.03 0.05 0.07 0.08 0.13 0.19 0.29 0.17 0.23 0.29 0.13 0.24 0.24 0.28 0.33 0.46 0.55 0.74 0.52 0.36 0.29 0.32 0.47 0.93 1.19
0.24 0.27 0.28 0.31 0.33 0.28 0.21 0.22 0.25 0.26 0.21 0.21 0.43 0.51 0.42 0.18 0.00 0.00 0.00 0.00 0.01 0.05 0.14 0.18 0.17 0.20 0.30 0.23 0.31 0.19 0.15 0.18 0.26 0.43 0.47 0.63 0.50 0.77 0.66 0.56 0.31 0.30 0.32 0.80 1.09
0.26 0.30 0.39 0.37 0.27 0.27 0.35 0.37 0.32 0.25 0.26 0.35 0.50 0.48 0.41 0.08 0.00 0.00 0.01 0.04 0.04 0.07 0.07 0.19 0.29 0.39 0.33 0.31 0.20 0.19 0.32 0.33 0.23 0.35 0.52 0.82 0.76 0.62 0.55 0.94 0.58 0.19 0.25 0.65 1.10
0.29 0.30 0.32 0.31 0.41 0.43 0.35 0.30 0.39 0.42 0.42 0.41 0.36 0.52 0.35 0.00 0.00 0.00 0.00 0.03 0.08 0.13 0.15 0.22 0.43 0.39 0.35 0.31 0.19 0.30 0.62 0.54 0.27 0.35 0.66 1.29 1.05 0.22 0.46 1.12 0.85 0.19 0.24 0.48 0.66
0.38 0.35 0.34 0.35 0.37 0.44 0.44 0.45 0.41 0.38 0.44 0.43 0.46 0.56 0.21 0.00 0.00 0.00 0.00 0.00 0.05 0.16 0.21 0.31 0.52 0.52 0.46 0.48 0.52 0.53 0.42 0.17 0.17 0.25 0.70 1.13 0.89 0.38 0.42 1.06 1.12 0.48 0.24 0.44 0.66
0.45 0.44 0.42 0.41 0.49 0.66 0.71 0.61 0.46 0.44 0.32 0.45 0.75 0.93 0.18 0.00 0.00 0.00 0.00 0.00 0.02 0.17 0.39 0.41 0.59 0.70 0.70 0.87 0.64 0.23 0.20 0.13 0.19 0.17 0.41 0.63 0.61 0.42 0.50 0.98 1.39 0.90 0.44 0.86 1.35
0.48 0.53 0.54 0.61 0.63 0.87 1.04 0.93 0.96 0.84 0.72 0.36 0.31 0.26 0.06 0.03 0.05 0.02 0.01 0.02 0.05 0.20 0.19 0.30 0.58 0.57 0.35 0.42 0.21 0.15 0.21 0.21 0.08 0.18 0.39 0.46 0.39 0.61 0.58 1.07 1.36 1.17 0.77 1.09 1.42
0.62 0.65 0.80 0.89 0.85 0.90 0.95 0.80 0.66 1.04 0.68 0.18 0.12 0.10 0.05 0.04 0.12 0.09 0.11 0.17 0.11 0.09 0.15 0.43 0.40 0.04 0.07 0.26 0.38 0.28 0.23 0.12 0.10 0.05 0.28 0.36 0.38 0.67 0.74 1.26 1.48 1.58 1.36 1.15 1.12
0.84 0.86 0.97 1.06 1.16 0.96 0.70 0.56 0.52 0.82 1.22 0.27 0.07 0.05 0.01 0.08 0.11 0.12 0.16 0.33 0.17 0.11 0.14 0.19 0.12 0.04 0.10 0.38 0.60 0.48 0.35 0.13 0.09 0.07 0.21 0.32 0.65 0.84 0.78 1.11 0.80 1.03 1.49 1.71 1.41
1.03 1.10 1.25 1.34 1.39 0.86 0.83 0.78 0.78 1.40 2.36 0.47 0.04 0.06 0.01 0.09 0.16 0.06 0.13 0.40 0.56 0.14 0.14 0.22 0.07 0.14 0.18 0.22 0.44 0.61 0.23 0.21 0.16 0.47 0.70 0.39 1.02 0.45 0.46 0.66 0.24 0.46 0.91 1.66 1.22
1.47 1.50 1.66 1.89 1.21 1.01 0.83 0.92 1.43 2.42 3.46 0.38 0.07 0.04 0.03 0.14 0.11 0.07 0.18 0.52 0.66 0.45 0.28 0.18 0.04 0.24 0.31 0.16 0.23 0.37 0.23 0.26 0.34 0.72 0.72 0.56 1.14 0.31 0.22 0.28 0.19 0.37 0.65 1.13 1.63
1.78 2.20 2.02 1.81 1.49 0.80 0.83 1.64 2.60 3.99 3.02 0.34 0.16 0.11 0.15 0.12 0.04 0.25 0.47 0.72 0.78 0.82 0.65 0.19 0.06 0.14 0.18 0.09 0.16 0.32 0.81 0.63 0.86 1.20 2.20 0.81 0.66 0.27 0.34 0.37 0.22 0.47 0.59 0.65 1.43
2.34 2.51 2.61 1.85 1.50 1.17 1.86 3.39 4.67 3.52 0.79 0.37 0.21 0.22 0.26 0.25 0.18 0.31 1.12 1.24 1.05 1.47 1.23 0.53 0.16 0.03 0.18 0.29 0.48 0.94 1.51 2.48 2.49 2.68 2.09 0.46 0.42 0.44 0.27 0.23 0.47 0.69 0.75 0.81 1.30
2.23 2.36 1.85 1.60 1.46 2.12 3.35 4.68 5.05 1.08 0.31 0.26 0.20 0.27 0.35 0.40 0.35 0.20 0.51 0.94 0.95 1.02 1.32 0.73 0.39 0.10 0.17 0.23 0.47 0.97 1.50 1.95 1.47 1.11 0.58 0.33 0.59 0.30 0.15 0.19 0.48 0.67 0.80 0.80 0.79
2.33 2.14 2.15 1.65 1.49 2.60 4.44 5.43 2.33 0.54 0.32 0.26 0.23 0.47 0.44 0.67 0.91 0.61 0.31 0.56 0.94 1.26 1.69 1.36 0.34 0.08 0.04 0.04 0.20 0.62 1.21 1.04 0.94 0.49 0.51 0.32 0.21 0.18 0.07 0.07 0.17 0.37 0.69 0.88 0.80
2.73 2.72 2.59 1.95 2.39 3.43 4.85 3.41 0.84 0.26 0.37 0.39 0.65 0.52 0.59 0.61 1.02 1.22 0.82 0.60 0.73 0.97 1.51 1.67 1.31 0.18 0.22 0.26 0.25 0.41 0.51 1.04 1.70 1.71 0.87 0.22 0.16 0.19 0.16 0.17 0.13 0.30 0.62 0.96 0.80
3.50 3.82 2.32 2.37 3.62 4.75 4.47 1.48 0.32 0.16 0.41 0.84 0.55 0.58 0.47 0.78 0.96 1.18 1.37 0.64 0.66 0.62 0.96 2.00 1.89 0.79 0.47 0.52 0.33 0.49 1.08 0.96 1.36 1.13 0.97 0.50 0.26 0.43 0.47 0.46 0.37 0.48 0.73 1.23 1.21
4.03 3.83 2.17 2.71 4.68 4.36 1.96 0.58 0.32 0.22 0.45 0.62 0.61 0.40 0.34 0.40 1.08 1.22 0.89 0.98 0.65 0.60 0.78 1.18 2.19 1.36 0.53 0.41 0.32 0.31 0.74 1.01 1.35 1.20 0.80 0.76 0.42 0.39 0.44 0.47 0.44 0.62 0.70 1.23 1.44
4.69 3.04 2.98 3.15 3.75 2.27 0.97 0.54 0.63 0.39 0.51 0.68 0.47 0.42 0.30 0.35 1.06 0.76 0.79 0.57 0.71 0.81 1.22 1.31 2.11 1.93 1.44 1.38 0.68 0.66 0.37 0.62 0.73 0.86 0.79 0.81 0.40 0.21 0.31 0.36 0.39 0.74 0.67 1.17 1.37
5.44 4.02 3.90 4.32 2.47 1.16 1.06 0.94 0.75 0.43 0.53 0.52 0.45 0.45 0.60 0.43 0.56 0.64 0.53 0.45 0.45 0.83 1.08 1.25 1.50 1.31 1.06 1.43 1.40 1.12 0.81 0.52 0.69 0.79 0.71 0.53 0.25 0.18 0.18 0.27 0.31 0.53 0.83 1.23 1.38
5.67 3.55 2.26 2.84 1.98 1.24 1.63 1.35 0.51 0.58 0.69 0.69 0.58 0.37 0.62 0.93 0.63 0.56 0.48 0.58 0.58 0.77 1.06 1.68 1.45 0.79 0.23 0.18 0.43 0.57 0.72 0.66 0.74 0.52 0.65 0.38 0.31 0.24 0.33 0.37 0.48 0.67 0.85 1.03 1.14
4.93 2.49 1.99 1.42 0.89 1.55 2.05 1.38 0.54 0.82 0.91 0.64 0.66 0.31 0.38 0.55 0.62 0.73 0.90 0.90 1.00 1.02 1.51 1.77 1.54 0.62 0.41 0.18 0.25 0.31 0.36 0.51 0.62 0.33 0.21 0.23 0.28 0.21 0.25 0.28 0.48 0.73 0.88 0.97 0.96
3.39 1.97 2.72 2.82 1.59 1.86 1.61 1.00 0.94 1.06 0.88 0.30 0.30 0.61 0.43 0.27 0.27 0.62 0.86 0.91 0.98 1.17 1.41 1.60 1.41 0.81 0.80 0.35 0.79 0.91 0.69 0.50 0.49 0.48 0.30 0.31 0.27 0.12 0.16 0.24 0.70 0.85 0.95 1.00 0.95

GFSSW_prec_precacc_300.txt.gz
Total_Precipitation_Accumulation
0.11 0.13 0.17 0.16 0.16 0.18 0.21 0.20 0.20 0.19 0.18 0.17 0.17 0.16 0.18 0.22 0.16 0.09 0.06 0.07 0.19 0.20 0.08 0.01 0.02 0.04 0.24 0.34 0.65 1.10 1.00 0.52 0.36 0.14 0.05 0.09 0.12 0.09 0.07 0.07 0.09 0.13 0.08 0.25 0.49
0.10 0.13 0.17 0.16 0.17 0.19 0.20 0.18 0.16 0.17 0.18 0.20 0.23 0.26 0.33 0.31 0.09 0.06 0.10 0.14 0.10 0.14 0.02 0.02 0.02 0.06 0.18 0.27 0.66 1.14 0.68 0.15 0.11 0.27 0.21 0.23 0.25 0.20 0.18 0.15 0.15 0.14 0.19 0.52 0.68
0.12 0.14 0.14 0.16 0.18 0.18 0.17 0.18 0.17 0.17 0.16 0.20 0.26 0.39 0.51 0.22 0.05 0.07 0.11 0.07 0.14 0.07 0.02 0.01 0.04 0.16 0.17 0.26 0.42 0.56 0.39 0.09 0.05 0.13 0.44 0.50 0.43 0.31 0.36 0.27 0.21 0.22 0.44 0.62 0.91
0.17 0.18 0.15 0.16 0.20 0.19 0.18 0.16 0.18 0.19 0.22 0.22 0.31 0.47 0.39 0.19 0.07 0.03 0.12 0.07 0.06 0.03 0.04 0.04 0.11 0.23 0.20 0.20 0.21 0.39 0.10 0.15 0.10 0.13 0.31 0.57 0.68 0.42 0.42 0.32 0.20 0.29 0.59 0.88 1.11
0.19 0.21 0.24 0.24 0.22 0.21 0.17 0.16 0.17 0.21 0.22 0.22 0.35 0.52 0.39 0.19 0.05 0.00 0.00 0.02 0.03 0.05 0.07 0.08 0.13 0.19 0.29 0.17 0.23 0.29 0.13 0.24 0.24 0.28 0.33 0.46 0.55 0.74 0.52 0.36 0.29 0.32 0.47 0.93 1.19
0.24 0.27 0.28 0.31 0.33 0.28 0.21 0.22 0.25 0.26 0.21 0.21 0.43 0.51 0.42 0.18 0.00 0.00 0.00 0.00 0.01 0.05 0.14 0.18 0.17 0.20 0.30 0.23 0.31 0.19 0.15 0.18 0.26 0.43 0.47 0.63 0.50 0.77 0.66 0.56 0.31 0.30 0.32 0.80 1.09
0.26 0.30 0.39 0.37 0.27 0.27 0.35 0.37 0.32 0.25 0.26 0.35 0.50 0.48 0.41 0.08 0.00 0.00 0.01 0.04 0.04 0.07 0.07 0.19 0.29 0.39 0.33 0.31 0.20 0.19 0.32 0.33 0.23 0.35 0.52 0.82 0.76 0.62 0.55 0.94 0.58 0.19 0.25 0.65 1.10
0.29 0.30 0.32 0.31 0.41 0.43 0.35 0.30 0.39 0.42 0.42 0.41 0.36 0.52 0.35 0.00 0.00 0.00 0.00 0.03 0.08 0.13 0.15 0.22 0.43 0.39 0.35 0.31 0.19 0.30 0.62 0.54 0.27 0.35 0.66 1.29 1.05 0.22 0.46 1.12 0.85 0.19 0.24 0.48 0.66
0.38 0.35 0.34 0.35 0.37 0.44 0.44 0.45 0.41 0.38 0.44 0.43 0.46 0.56 0.21 0.00 0.00 0.00 0.00 0.00 0.05 0.16 0.21 0.31 0.52 0.52 0.46 0.49 0.52 0.53 0.42 0.17 0.17 0.25 0.70 1.13 0.89 0.38 0.42 1.06 1.12 0.48 0.24 0.44 0.66
0.45 0.44 0.42 0.41 0.49 0.66 0.71 0.61 0.46 0.44 0.32 0.45 0.75 0.93 0.18 0.00 0.00 0.00 0.00 0.01 0.03 0.17 0.39 0.41 0.59 0.70 0.70 0.88 0.64 0.23 0.20 0.13 0.19 0.17 0.41 0.63 0.61 0.42 0.50 0.98 1.39 0.90 0.44 0.86 1.35
0.49 0.53 0.55 0.62 0.64 0.87 1.04 0.93 0.96 0.84 0.72 0.36 0.31 0.26 0.06 0.03 0.05 0.02 0.01 0.02 0.05 0.20 0.19 0.30 0.58 0.58 0.35 0.42 0.21 0.15 0.21 0.21 0.08 0.18 0.39 0.46 0.39 0.61 0.58 1.07 1.36 1.17 0.77 1.09 1.42
0.63 0.67 0.86 0.97 0.90 0.90 0.95 0.80 0.66 1.04 0.68 0.18 0.12 0.10 0.05 0.04 0.12 0.09 0.11 0.17 0.11 0.09 0.15 0.43 0.41 0.04 0.07 0.26 0.38 0.28 0.24 0.13 0.10 0.05 0.28 0.36 0.38 0.67 0.74 1.26 1.48 1.58 1.36 1.15 1.12
0.93 0.98 1.15 1.22 1.20 0.96 0.70 0.56 0.52 0.82 1.22 0.27 0.07 0.05 0.01 0.08 0.11 0.12 0.16 0.33 0.17 0.11 0.14 0.20 0.13 0.04 0.10 0.38 0.61 0.48 0.35 0.13 0.09 0.07 0.21 0.32 0.65 0.84 0.78 1.11 0.80 1.03 1.49 1.71 1.41
1.10 1.17 1.36 1.44 1.46 0.87 0.85 0.78 0.78 1.40 2.36 0.47 0.04 0.06 0.01 0.09 0.16 0.06 0.13 0.40 0.56 0.14 0.14 0.22 0.07 0.15 0.19 0.23 0.45 0.61 0.23 0.21 0.16 0.47 0.70 0.39 1.02 0.45 0.46 0.66 0.24 0.46 0.91 1.66 1.22
1.47 1.54 1.74 2.03 1.44 1.34 1.04 1.08 1.54 2.49 3.47 0.38 0.07 0.04 0.03 0.14 0.11 0.07 0.18 0.52 0.67 0.45 0.29 0.19 0.04 0.25 0.32 0.17 0.24 0.37 0.24 0.26 0.34 0.72 0.72 0.56 1.14 0.31 0.22 0.28 0.19 0.37 0.65 1.13 1.63
1.82 2.34 2.20 2.20 2.18 1.28 1.09 1.86 2.69 4.06 3.04 0.34 0.16 0.11 0.15 0.12 0.04 0.25 0.47 0.72 0.78 0.83 0.66 0.20 0.07 0.15 0.20 0.10 0.16 0.32 0.81 0.63 0.86 1.20 2.20 0.81 0.66 0.27 0.34 0.37 0.22 0.47 0.59 0.65 1.43
2.36 2.59 2.87 2.30 1.99 1.59 2.25 3.61 4.81 3.63 0.81 0.38 0.21 0.22 0.26 0.25 0.18 0.31 1.12 1.24 1.05 1.47 1.24 0.54 0.16 0.04 0.18 0.29 0.48 0.94 1.51 2.48 2.49 2.68 2.09 0.46 0.42 0.44 0.27 0.23 0.47 0.69 0.75 0.81 1.30
2.27 2.46 2.02 1.80 1.64 2.34 3.65 4.92 5.16 1.11 0.32 0.26 0.20 0.27 0.35 0.40 0.35 0.20 0.51 0.94 0.95 1.02 1.32 0.74 0.39 0.10 0.17 0.23 0.47 0.97 1.50 1.95 1.47 1.11 0.58 0.33 0.59 0.30 0.15 0.19 0.48 0.67 0.80 0.80 0.79
2.34 2.14 2.17 1.71 1.59 2.71 4.61 5.57 2.36 0.55 0.32 0.26 0.23 0.47 0.44 0.67 0.91 0.61 0.31 0.56 0.94 1.26 1.69 1.36 0.34 0.08 0.04 0.04 0.20 0.62 1.21 1.04 0.94 0.49 0.51 0.32 0.21 0.18 0.07 0.07 0.17 0.37 0.69 0.88 0.81
2.73 2.72 2.59 1.97 2.41 3.44 4.86 3.43 0.84 0.26 0.37 0.39 0.68 0.55 0.60 0.61 1.02 1.22 0.83 0.60 0.73 0.97 1.51 1.67 1.31 0.19 0.22 0.26 0.25 0.41 0.51 1.04 1.70 1.71 0.87 0.22 0.16 0.19 0.16 0.17 0.13 0.30 0.62 0.96 0.80
3.51 3.82 2.32 2.37 3.63 4.76 4.48 1.48 0.32 0.16 0.42 0.88 0.60 0.64 0.49 0.78 0.96 1.18 1.38 0.65 0.66 0.62 0.96 2.00 1.89 0.79 0.47 0.52 0.33 0.49 1.08 0.96 1.36 1.13 0.97 0.50 0.26 0.43 0.47 0.46 0.37 0.48 0.73 1.23 1.21
4.04 3.83 2.17 2.71 4.68 4.37 1.97 0.59 0.32 0.25 0.52 0.76 0.77 0.55 0.43 0.44 1.13 1.22 0.89 0.98 0.65 0.60 0.78 1.18 2.19 1.36 0.53 0.41 0.32 0.31 0.74 1.01 1.35 1.20 0.80 0.76 0.42 0.39 0.44 0.47 0.44 0.62 0.70 1.23 1.44
4.70 3.04 2.98 3.15 3.75 2.27 0.97 0.54 0.63 0.43 0.61 0.86 0.63 0.51 0.34 0.40 1.18 0.77 0.79 0.57 0.71 0.81 1.22 1.31 2.11 1.93 1.44 1.38 0.68 0.66 0.37 0.62 0.73 0.86 0.79 0.81 0.40 0.21 0.31 0.36 0.39 0.74 0.67 1.17 1.37
5.44 4.03 3.90 4.33 2.47 1.16 1.08 0.96 0.75 0.43 0.53 0.53 0.47 0.48 0.65 0.50 0.65 0.76 0.53 0.45 0.45 0.84 1.08 1.25 1.50 1.31 1.06 1.43 1.40 1.12 0.81 0.52 0.69 0.79 0.71 0.53 0.25 0.18 0.18 0.27 0.31 0.53 0.83 1.23 1.38
5.67 3.56 2.27 2.85 1.99 1.24 1.68 1.39 0.51 0.60 0.72 0.70 0.60 0.39 0.73 1.06 0.67 0.61 0.52 0.58 0.58 0.78 1.07 1.68 1.45 0.79 0.23 0.18 0.43 0.57 0.72 0.66 0.74 0.52 0.65 0.38 0.31 0.24 0.33 0.37 0.48 0.67 0.85 1.03 1.14
4.93 2.50 2.00 1.43 0.91 1.57 2.11 1.41 0.55 0.85 0.99 0.66 0.70 0.37 0.52 0.66 0.68 0.75 0.93 0.92 1.00 1.02 1.51 1.77 1.54 0.62 0.41 0.18 0.25 0.31 0.36 0.51 0.62 0.33 0.21 0.23 0.28 0.21 0.25 0.28 0.48 0.73 0.88 0.97 0.96
3.39 1.98 2.74 2.85 1.61 1.89 1.63 1.01 0.94 1.09 0.93 0.32 0.39 0.75 0.54 0.37 0.36 0.63 0.87 0.92 0.98 1.17 1.41 1.60 1.41 0.81 0.80 0.35 0.79 0.91 0.69 0.50 0.49 0.48 0.30 0.31 0.27 0.12 0.16 0.24 0.70 0.85 0.95 1.00 0.95

GFSSW_prec_precacc_303.txt.gz
Total_Precipitation_Accumulation
0.11 0.13 0.17 0.16 0.16 0.18 0.21 0.20 0.20 0.19 0.18 0.17 0.17 0.16 0.18 0.22 0.16 0.09 0.06 0.07 0.19 0.20 0.08 0.01 0.02 0.04 0.24 0.34 0.65 1.10 1.00 0.52 0.36 0.14 0.05 0.09 0.12 0.09 0.07 0.07 0.09 0.13 0.08 0.25 0.49
0.10 0.13 0.17 0.16 0.17 0.19 0.20 0.18 0.16 0.17 0.18 0.20 0.23 0.26 0.33 0.31 0.09 0.06 0.10 0.14 0.10 0.14 0.02 0.02 0.02 0.06 0.18 0.27 0.66 1.14 0.68 0.15 0.11 0.27 0.21 0.23 0.25 0.20 0.18 0.15 0.15 0.14 0.19 0.52 0.68
0.12 0.14 0.14 0.16 0.18 0.18 0.17 0.18 0.17 0.17 0.16 0.20 0.26 0.39 0.51 0.22 0.05 0.07 0.11 0.07 0.14 0.07 0.02 0.01 0.04 0.16 0.17 0.26 0.42 0.56 0.39 0.09 0.05 0.13 0.44 0.50 0.43 0.31 0.36 0.27 0.21 0.22 0.44 0.62 0.91
0.17 0.18 0.15 0.16 0.20 0.19 0.18 0.16 0.18 0.19 0.22 0.22 0.31 0.47 0.39 0.19 0.07 0.03 0.12 0.07 0.06 0.03 0.04 0.04 0.11 0.23 0.20 0.20 0.21 0.39 0.10 0.15 0.10 0.13 0.31 0.57 0.68 0.42 0.42 0.32 0.20 0.29 0.59 0.88 1.11
0.19 0.21 0.24 0.24 0.22 0.21 0.17 0.16 0.17 0.21 0.22 0.22 0.35 0.52 0.39 0.19 0.05 0.00 0.00 0.02 0.03 0.05 0.07 0.08 0.13 0.19 0.29 0.17 0.23 0.29 0.13 0.24 0.24 0.28 0.33 0.46 0.55 0.74 0.52 0.36 0.29 0.32 0.47 0.93 1.19
0.24 0.27 0.28 0.31 0.33 0.28 0.21 0.22 0.25 0.26 0.21 0.21 0.43 0.51 0.42 0.18 0.00 0.00 0.00 0.00 0.01 0.05 0.14 0.18 0.17 0.20 0.30 0.23 0.31 0.19 0.15 0.18 0.26 0.43 0.47 0.63 0.50 0.77 0.66 0.56 0.31 0.30 0.32 0.80 1.09
0.26 0.30 0.39 0.37 0.27 0.27 0.35 0.37 0.32 0.25 0.26 0.35 0.50 0.48 0.41 0.08 0.00 0.00 0.01 0.04 0.04 0.07 0.07 0.19 0.29 0.39 0.33 0.31 0.20 0.19 0.32 0.33 0.23 0.35 0.52 0.82 0.76 0.62 0.55 0.94 0.58 0.19 0.25 0.65 1.10
0.30 0.31 0.32 0.31 0.41 0.43 0.35 0.30 0.39 0.42 0.42 0.41 0.36 0.52 0.35 0.00 0.00 0.00 0.00 0.03 0.08 0.13 0.15 0.22 0.43 0.39 0.35 0.31 0.19 0.30 0.62 0.54 0.27 0.35 0.66 1.29 1.05 0.22 0.46 1.12 0.85 0.19 0.24 0.48 0.66
0.42 0.37 0.35 0.35 0.37 0.44 0.44 0.45 0.41 0.38 0.44 0.43 0.46 0.56 0.21 0.00 0.00 0.00 0.00 0.00 0.05 0.16 0.21 0.31 0.52 0.52 0.46 0.49 0.52 0.53 0.42 0.17 0.17 0.25 0.70 1.13 0.89 0.38 0.42 1.06 1.12 0.48 0.24 0.44 0.66
0.46 0.45 0.43 0.41 0.49 0.66 0.71 0.61 0.46 0.44 0.32 0.45 0.75 0.93 0.18 0.00 0.00 0.00 0.00 0.01 0.03 0.17 0.39 0.41 0.59 0.70 0.70 0.88 0.64 0.23 0.20 0.13 0.19 0.17 0.41 0.63 0.61 0.42 0.50 0.98 1.39 0.90 0.44 0.86 1.35
0.49 0.53 0.55 0.62 0.65 0.87 1.05 0.93 0.96 0.84 0.72 0.36 0.31 0.26 0.06 0.03 0.05 0.02 0.01 0.02 0.05 0.20 0.19 0.30 0.58 0.58 0.35 0.42 0.21 0.15 0.21 0.21 0.08 0.18 0.39 0.46 0.39 0.61 0.58 1.07 1.36 1.17 0.77 1.09 1.42
0.63 0.67 0.86 0.97 0.92 0.94 0.99 0.82 0.66 1.04 0.68 0.18 0.12 0.10 0.05 0.04 0.12 0.09 0.11 0.17 0.11 0.09 0.15 0.43 0.41 0.04 0.07 0.26 0.38 0.28 0.24 0.13 0.11 0.05 0.28 0.36 0.38 0.67 0.74 1.26 1.48 1.58 1.36 1.15 1.12
0.93 0.98 1.15 1.26 1.33 1.06 0.71 0.56 0.52 0.82 1.22 0.27 0.07 0.05 0.01 0.08 0.11 0.12 0.16 0.33 0.17 0.11 0.14 0.20 0.13 0.04 0.10 0.38 0.61 0.48 0.35 0.13 0.09 0.08 0.21 0.32 0.65 0.84 0.78 1.11 0.80 1.03 1.49 1.71 1.41
1.11 1.17 1.36 1.45 1.48 0.87 0.85 0.78 0.78 1.41 2.40 0.48 0.04 0.06 0.01 0.09 0.16 0.06 0.13 0.40 0.56 0.14 0.14 0.22 0.07 0.15 0.19 0.23 0.45 0.61 0.23 0.21 0.16 0.47 0.70 0.39 1.02 0.45 0.46 0.66 0.24 0.46 0.91 1.66 1.22
1.47 1.55 1.76 2.07 1.45 1.35 1.05 1.08 1.55 2.55 3.57 0.38 0.07 0.04 0.03 0.14 0.11 0.07 0.18 0.52 0.67 0.45 0.29 0.19 0.04 0.25 0.32 0.17 0.24 0.37 0.24 0.26 0.34 0.72 0.72 0.56 1.14 0.31 0.22 0.28 0.19 0.37 0.65 1.13 1.63
1.82 2.34 2.21 2.22 2.19 1.29 1.09 1.87 2.73 4.19 3.13 0.34 0.16 0.11 0.15 0.12 0.04 0.25 0.47 0.72 0.78 0.83 0.66 0.20 0.07 0.15 0.20 0.10 0.16 0.33 0.82 0.64 0.86 1.20 2.20 0.81 0.66 0.27 0.34 0.37 0.22 0.47 0.59 0.65 1.43
2.36 2.59 2.87 2.30 2.00 1.60 2.26 3.62 4.84 3.74 0.88 0.44 0.23 0.23 0.26 0.25 0.18 0.31 1.12 1.24 1.05 1.47 1.24 0.54 0.16 0.04 0.18 0.29 0.49 0.94 1.51 2.48 2.49 2.68 2.09 0.46 0.42 0.44 0.27 0.23 0.47 0.69 0.75 0.81 1.30
2.27 2.46 2.02 1.80 1.65 2.36 3.65 4.93 5.18 1.13 0.34 0.27 0.20 0.27 0.35 0.40 0.35 0.20 0.51 0.94 0.95 1.02 1.32 0.74 0.39 0.10 0.17 0.23 0.47 0.97 1.50 1.95 1.47 1.11 0.58 0.33 0.59 0.30 0.15 0.19 0.48 0.67 0.80 0.80 0.79
2.34 2.14 2.17 1.71 1.60 2.74 4.61 5.58 2.37 0.56 0.32 0.26 0.23 0.47 0.45 0.67 0.91 0.61 0.31 0.56 0.94 1.26 1.69 1.36 0.34 0.08 0.04 0.04 0.20 0.62 1.21 1.04 0.94 0.49 0.51 0.32 0.21 0.18 0.07 0.07 0.17 0.37 0.69 0.88 0.81
2.73 2.72 2.59 1.97 2.42 3.45 4.87 3.44 0.84 0.26 0.37 0.39 0.69 0.57 0.61 0.61 1.02 1.22 0.83 0.60 0.73 0.97 1.51 1.67 1.31 0.19 0.22 0.26 0.25 0.41 0.51 1.04 1.70 1.71 0.87 0.22 0.16 0.19 0.16 0.17 0.13 0.30 0.62 0.96 0.80
3.51 3.82 2.32 2.37 3.63 4.76 4.48 1.48 0.32 0.16 0.42 0.88 0.60 0.65 0.51 0.79 0.96 1.18 1.38 0.65 0.66 0.62 0.96 2.00 1.89 0.79 0.47 0.52 0.33 0.49 1.08 0.96 1.36 1.13 0.97 0.50 0.26 0.43 0.47 0.46 0.37 0.48 0.73 1.23 1.21
4.04 3.84 2.17 2.71 4.68 4.37 1.97 0.59 0.32 0.25 0.52 0.77 0.79 0.60 0.54 0.53 1.15 1.22 0.89 0.99 0.65 0.60 0.78 1.18 2.19 1.36 0.53 0.41 0.32 0.31 0.74 1.01 1.35 1.20 0.80 0.76 0.42 0.39 0.44 0.47 0.44 0.62 0.70 1.23 1.44
4.70 3.04 2.98 3.15 3.75 2.27 0.97 0.54 0.63 0.43 0.61 0.86 0.65 0.60 0.47 0.45 1.18 0.78 0.79 0.57 0.71 0.81 1.22 1.31 2.11 1.93 1.44 1.38 0.68 0.66 0.37 0.62 0.73 0.86 0.79 0.81 0.40 0.21 0.31 0.36 0.39 0.74 0.67 1.17 1.37
5.44 4.03 3.90 4.33 2.47 1.16 1.09 0.96 0.76 0.43 0.53 0.53 0.47 0.48 0.65 0.50 0.66 0.79 0.53 0.45 0.45 0.84 1.08 1.25 1.50 1.31 1.06 1.43 1.40 1.12 0.81 0.52 0.69 0.79 0.71 0.53 0.25 0.18 0.18 0.27 0.31 0.53 0.83 1.23 1.38
5.68 3.56 2.27 2.85 1.99 1.24 1.68 1.39 0.51 0.62 0.73 0.71 0.61 0.41 0.74 1.08 0.68 0.62 0.54 0.60 0.59 0.78 1.09 1.68 1.45 0.79 0.23 0.18 0.43 0.57 0.72 0.66 0.74 0.52 0.65 0.38 0.31 0.24 0.33 0.37 0.48 0.67 0.85 1.03 1.14
4.94 2.50 2.00 1.43 0.91 1.57 2.12 1.42 0.55 0.88 1.01 0.67 0.72 0.39 0.55 0.71 0.73 0.78 0.96 0.94 1.01 1.02 1.54 1.78 1.54 0.62 0.41 0.18 0.25 0.31 0.36 0.51 0.62 0.33 0.21 0.23 0.28 0.21 0.25 0.28 0.48 0.73 0.88 0.97 0.96
3.40 1.98 2.75 2.85 1.61 1.90 1.63 1.01 0.94 1.10 0.93 0.33 0.39 0.77 0.55 0.40 0.40 0.64 0.90 0.93 0.98 1.17 1.42 1.61 1.41 0.81 0.80 0.35 0.79 0.91 0.69 0.50 0.49 0.48 0.30 0.31 0.27 0.12 0.16 0.24 0.70 0.85 0.95 1.00 0.95

GFSSW_prec_precacc_306.txt.gz
Total_Precipitation_Accumulation
0.11 0.13 0.17 0.16 0.16 0.18 0.21 0.20 0.20 0.19 0.18 0.17 0.17 0.16 0.18 0.22 0.16 0.09 0.06 0.07 0.19 0.20 0.08 0.01 0.02 0.04 0.24 0.34 0.65 1.10 1.00 0.52 0.36 0.14 0.05 0.09 0.12 0.09 0.07 0.07 0.09 0.13 0.08 0.25 0.49
0.10 0.13 0.17 0.16 0.17 0.19 0.20 0.18 0.16 0.17 0.18 0.20 0.23 0.26 0.33 0.31 0.09 0.06 0.10 0.14 0.10 0.14 0.02 0.02 0.02 0.06 0.18 0.27 0.66 1.14 0.68 0.15 0.11 0.27 0.21 0.23 0.25 0.20 0.18 0.15 0.15 0.14 0.19 0.52 0.68
0.12 0.14 0.14 0.16 0.18 0.18 0.17 0.18 0.17 0.17 0.16 0.20 0.26 0.39 0.51 0.22 0.05 0.07 0.11 0.07 0.14 0.07 0.02 0.01 0.04 0.16 0.17 0.26 0.42 0.56 0.39 0.09 0.05 0.13 0.44 0.50 0.43 0.31 0.36 0.27 0.21 0.22 0.44 0.62 0.91
0.17 0.18 0.15 0.16 0.20 0.19 0.18 0.16 0.18 0.19 0.22 0.22 0.31 0.47 0.39 0.19 0.07 0.03 0.12 0.07 0.06 0.03 0.04 0.04 0.11 0.23 0.20 0.20 0.21 0.39 0.10 0.15 0.10 0.13 0.31 0.57 0.68 0.42 0.42 0.32 0.20 0.29 0.59 0.88 1.11
0.19 0.21 0.24 0.24 0.22 0.21 0.17 0.16 0.17 0.21 0.22 0.22 0.35 0.52 0.39 0.19 0.05 0.00 0.00 0.02 0.03 0.05 0.07 0.08 0.13 0.19 0.29 0.17 0.23 0.29 0.13 0.24 0.24 0.28 0.33 0.46 0.55 0.74 0.52 0.36 0.29 0.32 0.47 0.93 1.19
0.25 0.28 0.28 0.31 0.33 0.28 0.21 0.22 0.25 0.26 0.21 0.21 0.43 0.51 0.42 0.18 0.00 0.00 0.00 0.00 0.01 0.05 0.14 0.18 0.17 0.20 0.30 0.23 0.31 0.19 0.15 0.18 0.26 0.43 0.47 0.63 0.50 0.77 0.66 0.56 0.31 0.30 0.32 0.80 1.09
0.27 0.31 0.41 0.38 0.27 0.27 0.35 0.37 0.32 0.25 0.26 0.35 0.50 0.48 0.41 0.08 0.00 0.00 0.01 0.04 0.04 0.07 0.07 0.19 0.29 0.39 0.33 0.31 0.20 0.19 0.32 0.33 0.23 0.35 0.52 0.82 0.76 0.62 0.55 0.94 0.58 0.19 0.25 0.65 1.10
0.31 0.35 0.37 0.34 0.41 0.43 0.35 0.30 0.39 0.42 0.42 0.41 0.36 0.52 0.35 0.00 0.00 0.00 0.00 0.03 0.08 0.13 0.15 0.22 0.43 0.39 0.35 0.31 0.19 0.30 0.62 0.54 0.27 0.35 0.66 1.29 1.05 0.22 0.46 1.12 0.85 0.19 0.24 0.48 0.66
0.43 0.40 0.36 0.36 0.37 0.44 0.44 0.45 0.41 0.38 0.44 0.43 0.46 0.56 0.21 0.00 0.00 0.00 0.00 0.00 0.05 0.16 0.21 0.31 0.52 0.52 0.46 0.49 0.53 0.53 0.42 0.17 0.17 0.25 0.70 1.13 0.89 0.38 0.42 1.06 1.12 0.48 0.24 0.44 0.66
0.46 0.45 0.43 0.41 0.49 0.66 0.71 0.61 0.46 0.44 0.32 0.45 0.75 0.93 0.18 0.00 0.00 0.00 0.00 0.01 0.03 0.17 0.39 0.41 0.59 0.70 0.70 0.88 0.65 0.23 0.20 0.13 0.19 0.17 0.41 0.63 0.61 0.42 0.50 0.98 1.39 0.90 0.44 0.86 1.35
0.49 0.53 0.55 0.62 0.65 0.88 1.05 0.93 0.96 0.84 0.72 0.36 0.31 0.26 0.06 0.03 0.05 0.02 0.01 0.02 0.05 0.20 0.19 0.30 0.58 0.58 0.35 0.42 0.21 0.15 0.21 0.21 0.08 0.18 0.39 0.46 0.39 0.61 0.58 1.07 1.36 1.17 0.77 1.09 1.42
0.63 0.67 0.86 0.97 0.92 0.94 1.00 0.84 0.67 1.04 0.68 0.18 0.12 0.10 0.05 0.04 0.12 0.09 0.11 0.17 0.11 0.09 0.15 0.43 0.41 0.04 0.07 0.26 0.38 0.28 0.24 0.13 0.11 0.05 0.28 0.36 0.38 0.67 0.74 1.26 1.48 1.58 1.36 1.15 1.12
0.94 0.99 1.15 1.26 1.33 1.08 0.73 0.56 0.52 0.82 1.22 0.27 0.07 0.05 0.01 0.08 0.11 0.12 0.16 0.33 0.17 0.11 0.14 0.20 0.13 0.04 0.10 0.38 0.61 0.48 0.35 0.13 0.09 0.08 0.22 0.32 0.65 0.84 0.78 1.11 0.80 1.03 1.49 1.71 1.41
1.11 1.18 1.37 1.46 1.48 0.87 0.85 0.78 0.78 1.41 2.41 0.48 0.04 0.06 0.01 0.09 0.16 0.06 0.13 0.40 0.56 0.14 0.14 0.22 0.07 0.15 0.19 0.23 0.45 0.61 0.23 0.21 0.16 0.47 0.70 0.39 1.02 0.45 0.46 0.66 0.24 0.46 0.91 1.66 1.22
1.47 1.55 1.77 2.08 1.46 1.35 1.05 1.08 1.55 2.55 3.58 0.38 0.07 0.04 0.03 0.14 0.11 0.07 0.18 0.52 0.67 0.45 0.29 0.19 0.04 0.25 0.32 0.17 0.24 0.37 0.24 0.27 0.34 0.72 0.72 0.56 1.14 0.31 0.22 0.28 0.19 0.37 0.65 1.13 1.63
1.82 2.35 2.21 2.22 2.19 1.29 1.09 1.87 2.73 4.20 3.15 0.34 0.17 0.12 0.18 0.15 0.05 0.25 0.47 0.72 0.78 0.83 0.66 0.20 0.07 0.15 0.20 0.10 0.16 0.33 0.82 0.64 0.86 1.20 2.20 0.81 0.66 0.27 0.34 0.37 0.22 0.47 0.59 0.65 1.43
2.36 2.59 2.87 2.30 2.00 1.60 2.26 3.62 4.85 3.74 0.88 0.46 0.25 0.25 0.29 0.26 0.18 0.31 1.12 1.24 1.05 1.47 1.24 0.54 0.16 0.04 0.18 0.29 0.49 0.94 1.51 2.48 2.49 2.68 2.09 0.46 0.42 0.44 0.27 0.23 0.47 0.69 0.75 0.81 1.30
2.27 2.46 2.02 1.81 1.65 2.36 3.65 4.94 5.19 1.13 0.35 0.27 0.20 0.27 0.35 0.40 0.35 0.20 0.51 0.94 0.95 1.02 1.32 0.74 0.39 0.10 0.17 0.23 0.47 0.98 1.50 1.95 1.47 1.11 0.58 0.33 0.59 0.30 0.15 0.19 0.48 0.67 0.80 0.80 0.79
2.34 2.14 2.17 1.71 1.60 2.74 4.62 5.58 2.37 0.58 0.32 0.26 0.24 0.47 0.45 0.67 0.91 0.61 0.31 0.56 0.94 1.26 1.69 1.36 0.34 0.08 0.04 0.04 0.20 0.62 1.21 1.04 0.94 0.49 0.51 0.32 0.21 0.18 0.07 0.07 0.17 0.37 0.69 0.88 0.81
2.73 2.72 2.59 1.97 2.42 3.45 4.87 3.44 0.85 0.26 0.37 0.39 0.69 0.57 0.61 0.61 1.02 1.22 0.83 0.60 0.73 0.97 1.51 1.67 1.31 0.19 0.22 0.26 0.25 0.41 0.51 1.04 1.70 1.71 0.87 0.22 0.16 0.19 0.16 0.17 0.13 0.30 0.62 0.96 0.80
3.51 3.82 2.32 2.37 3.63 4.77 4.49 1.48 0.32 0.16 0.42 0.88 0.60 0.66 0.51 0.80 0.97 1.19 1.38 0.65 0.66 0.62 0.96 2.00 1.89 0.79 0.47 0.52 0.33 0.49 1.08 0.96 1.36 1.13 0.97 0.50 0.26 0.43 0.47 0.46 0.37 0.48 0.73 1.23 1.21
4.04 3.84 2.17 2.71 4.68 4.37 1.97 0.59 0.32 0.25 0.52 0.77 0.79 0.60 0.55 0.60 1.25 1.24 0.89 1.01 0.67 0.61 0.78 1.18 2.19 1.36 0.53 0.41 0.32 0.31 0.74 1.01 1.35 1.20 0.80 0.76 0.42 0.39 0.44 0.47 0.44 0.62 0.70 1.23 1.44
4.70 3.04 2.98 3.15 3.75 2.27 0.97 0.54 0.63 0.43 0.61 0.86 0.65 0.60 0.48 0.52 1.24 0.78 0.79 0.59 0.74 0.82 1.22 1.31 2.11 1.93 1.44 1.38 0.68 0.66 0.37 0.62 0.73 0.86 0.79 0.81 0.40 0.21 0.31 0.36 0.39 0.74 0.67 1.17 1.37
5.45 4.03 3.90 4.33 2.47 1.16 1.09 0.96 0.76 0.43 0.53 0.54 0.48 0.50 0.67 0.50 0.66 0.81 0.53 0.47 0.46 0.87 1.09 1.25 1.50 1.31 1.06 1.43 1.40 1.12 0.81 0.52 0.69 0.79 0.71 0.53 0.25 0.18 0.18 0.27 0.31 0.53 0.83 1.23 1.38
5.69 3.56 2.27 2.85 1.99 1.25 1.69 1.40 0.51 0.62 0.73 0.71 0.62 0.46 0.79 1.11 0.69 0.62 0.57 0.62 0.60 0.82 1.12 1.68 1.45 0.79 0.23 0.18 0.43 0.57 0.72 0.66 0.74 0.52 0.65 0.38 0.31 0.24 0.33 0.37 0.48 0.67 0.85 1.03 1.14
4.95 2.50 2.00 1.43 0.91 1.57 2.12 1.42 0.56 0.88 1.02 0.67 0.72 0.40 0.59 0.75 0.78 0.83 0.99 0.97 1.04 1.06 1.59 1.80 1.55 0.62 0.41 0.18 0.25 0.31 0.36 0.51 0.62 0.33 0.21 0.23 0.28 0.21 0.25 0.28 0.48 0.73 0.88 0.97 0.96
3.42 1.99 2.76 2.85 1.61 1.90 1.64 1.01 0.94 1.10 0.93 0.33 0.39 0.77 0.55 0.41 0.43 0.68 0.96 0.98 1.01 1.21 1.46 1.63 1.43 0.81 0.80 0.35 0.79 0.91 0.69 0.50 0.49 0.48 0.30 0.31 0.27 0.12 0.16 0.24 0.70 0.85 0.95 1.00 0.95